• In Denmark
  • List of Countries
  • For 7 days
  • Water Temperature
  • Satellite Maps
  • Weather Map
  • Weather Widgets
  • user-avatar
    Login

    Hourly Weather Al-Jahra

    Today, 17 October, Tuesday

    Time Temperature Precipitation Wind Pressure Humidity
    00:00 +30°C° 0 mm 3 mps 751 mmHg 20%
    01:00 +29°C° 0 mm 4 mps 751 mmHg 20%
    02:00 +29°C° 0 mm 4 mps 751 mmHg 21%
    03:00 +28°C° 0 mm 4 mps 751 mmHg 21%
    04:00 +28°C° 0 mm 4 mps 751 mmHg 22%
    05:00 +27°C° 0 mm 4 mps 751 mmHg 22%
    06:00 +27°C° 0 mm 4 mps 752 mmHg 23%
    07:00 +29°C° 0 mm 4 mps 752 mmHg 20%
    08:00 +32°C° 0 mm 5 mps 752 mmHg 17%
    09:00 +34°C° 0 mm 5 mps 753 mmHg 15%
    10:00 +35°C° 0 mm 5 mps 752 mmHg 13%
    11:00 +38°C° 0 mm 6 mps 752 mmHg 12%
    12:00 +39°C° 0 mm 6 mps 752 mmHg 11%
    13:00 +39°C° 0 mm 5 mps 752 mmHg 11%
    14:00 +39°C° 0 mm 5 mps 751 mmHg 11%
    15:00 +40°C° 0 mm 5 mps 751 mmHg 11%
    16:00 +37°C° 0 mm 4 mps 751 mmHg 13%
    17:00 +35°C° 0 mm 3 mps 751 mmHg 15%
    18:00 +33°C° 0 mm 3 mps 751 mmHg 17%
    19:00 +31°C° 0 mm 3 mps 751 mmHg 17%
    20:00 +31°C° 0 mm 3 mps 751 mmHg 18%
    21:00 +30°C° 0 mm 4 mps 751 mmHg 18%
    22:00 +30°C° 0 mm 4 mps 751 mmHg 18%
    23:00 +29°C° 0 mm 4 mps 751 mmHg 18%

    Tomorrow, 18 October, Wednesday

    Time Temperature Precipitation Wind Pressure Humidity
    00:00 +29°C° 0 mm 5 mps 751 mmHg 18%
    01:00 +29°C° 0 mm 5 mps 752 mmHg 18%
    02:00 +28°C° 0 mm 6 mps 752 mmHg 18%
    03:00 +28°C° 0 mm 6 mps 752 mmHg 18%
    04:00 +28°C° 0 mm 6 mps 752 mmHg 20%
    05:00 +28°C° 0 mm 6 mps 752 mmHg 22%
    06:00 +27°C° 0 mm 6 mps 753 mmHg 24%
    07:00 +29°C° 0 mm 6 mps 753 mmHg 22%
    08:00 +30°C° 0 mm 6 mps 754 mmHg 21%
    09:00 +32°C° 0 mm 6 mps 754 mmHg 19%
    10:00 +34°C° 0 mm 6 mps 754 mmHg 18%
    11:00 +35°C° 0 mm 5 mps 753 mmHg 16%
    12:00 +37°C° 0 mm 5 mps 753 mmHg 14%
    13:00 +37°C° 0 mm 5 mps 753 mmHg 13%
    14:00 +39°C° 0 mm 5 mps 752 mmHg 13%
    15:00 +38°C° 0 mm 4 mps 752 mmHg 12%
    16:00 +36°C° 0 mm 4 mps 752 mmHg 13%
    17:00 +34°C° 0 mm 3 mps 752 mmHg 15%
    18:00 +33°C° 0 mm 3 mps 752 mmHg 16%
    19:00 +31°C° 0 mm 3 mps 753 mmHg 16%
    20:00 +32°C° 0 mm 4 mps 753 mmHg 16%
    21:00 +30°C° 0 mm 5 mps 754 mmHg 16%
    22:00 +30°C° 0 mm 5 mps 754 mmHg 16%
    23:00 +29°C° 0 mm 5 mps 754 mmHg 17%

    Day after tomorrow, 19 October, Thursday

    Time Temperature Precipitation Wind Pressure Humidity
    00:00 +28°C° 0 mm 5 mps 754 mmHg 18%
    01:00 +28°C° 0 mm 5 mps 754 mmHg 18%
    02:00 +27°C° 0 mm 5 mps 754 mmHg 18%
    03:00 +27°C° 0 mm 6 mps 754 mmHg 18%
    04:00 +26°C° 0 mm 5 mps 754 mmHg 19%
    05:00 +26°C° 0 mm 5 mps 754 mmHg 19%
    06:00 +25°C° 0 mm 5 mps 755 mmHg 20%
    07:00 +27°C° 0 mm 5 mps 755 mmHg 17%
    08:00 +30°C° 0 mm 5 mps 756 mmHg 15%
    09:00 +33°C° 0 mm 6 mps 756 mmHg 13%
    10:00 +34°C° 0 mm 5 mps 756 mmHg 12%
    11:00 +35°C° 0 mm 5 mps 756 mmHg 11%
    12:00 +37°C° 0 mm 5 mps 755 mmHg 10%
    13:00 +37°C° 0 mm 5 mps 755 mmHg 10%
    14:00 +38°C° 0 mm 4 mps 755 mmHg 10%
    15:00 +38°C° 0 mm 4 mps 754 mmHg 10%
    16:00 +36°C° 0 mm 4 mps 754 mmHg 11%
    17:00 +34°C° 0 mm 4 mps 754 mmHg 12%
    18:00 +33°C° 0 mm 4 mps 755 mmHg 13%
    19:00 +32°C° 0 mm 4 mps 755 mmHg 14%
    20:00 +30°C° 0 mm 4 mps 755 mmHg 15%
    21:00 +29°C° 0 mm 4 mps 755 mmHg 15%
    22:00 +29°C° 0 mm 4 mps 755 mmHg 16%
    23:00 +28°C° 0 mm 4 mps 755 mmHg 16%

    20 October, Friday

    Time Temperature Precipitation Wind Pressure Humidity
    00:00 +28°C° 0 mm 4 mps 755 mmHg 17%
    01:00 +27°C° 0 mm 4 mps 755 mmHg 17%
    02:00 +27°C° 0 mm 4 mps 755 mmHg 17%
    03:00 +27°C° 0 mm 4 mps 754 mmHg 18%
    04:00 +26°C° 0 mm 3 mps 755 mmHg 18%
    05:00 +26°C° 0 mm 3 mps 755 mmHg 19%
    06:00 +25°C° 0 mm 3 mps 755 mmHg 19%
    07:00 +27°C° 0 mm 3 mps 755 mmHg 17%
    08:00 +29°C° 0 mm 3 mps 756 mmHg 14%
    09:00 +31°C° 0 mm 3 mps 756 mmHg 12%
    10:00 +34°C° 0 mm 3 mps 756 mmHg 11%
    11:00 +35°C° 0 mm 3 mps 756 mmHg 10%
    12:00 +36°C° 0 mm 3 mps 755 mmHg 9%
    13:00 +37°C° 0 mm 3 mps 755 mmHg 9%
    14:00 +37°C° 0 mm 2 mps 754 mmHg 9%
    15:00 +38°C° 0 mm 2 mps 754 mmHg 9%
    16:00 +36°C° 0 mm 2 mps 754 mmHg 10%
    17:00 +34°C° 0 mm 2 mps 754 mmHg 11%
    18:00 +31°C° 0 mm 2 mps 754 mmHg 13%
    19:00 +30°C° 0 mm 2 mps 754 mmHg 13%
    20:00 +29°C° 0 mm 2 mps 754 mmHg 13%
    21:00 +29°C° 0 mm 3 mps 754 mmHg 14%
    22:00 +28°C° 0 mm 3 mps 754 mmHg 14%
    23:00 +28°C° 0 mm 2 mps 754 mmHg 15%

    21 October, Saturday

    Time Temperature Precipitation Wind Pressure Humidity
    00:00 +27°C° 0 mm 2 mps 753 mmHg 15%
    01:00 +27°C° 0 mm 3 mps 753 mmHg 15%
    02:00 +27°C° 0 mm 3 mps 753 mmHg 15%
    03:00 +26°C° 0 mm 3 mps 753 mmHg 15%
    04:00 +26°C° 0 mm 3 mps 753 mmHg 15%
    05:00 +26°C° 0 mm 3 mps 754 mmHg 15%
    06:00 +25°C° 0 mm 3 mps 754 mmHg 15%
    07:00 +27°C° 0 mm 3 mps 754 mmHg 14%
    08:00 +30°C° 0 mm 3 mps 754 mmHg 12%
    09:00 +33°C° 0 mm 3 mps 755 mmHg 10%
    10:00 +34°C° 0 mm 3 mps 754 mmHg 9%
    11:00 +35°C° 0 mm 4 mps 754 mmHg 9%
    12:00 +37°C° 0 mm 4 mps 753 mmHg 8%
    13:00 +37°C° 0 mm 4 mps 753 mmHg 8%
    14:00 +37°C° 0 mm 3 mps 752 mmHg 8%
    15:00 +37°C° 0 mm 3 mps 752 mmHg 8%
    16:00 +35°C° 0 mm 3 mps 752 mmHg 9%
    17:00 +34°C° 0 mm 3 mps 752 mmHg 10%
    18:00 +31°C° 0 mm 3 mps 752 mmHg 11%
    19:00 +30°C° 0 mm 3 mps 753 mmHg 12%
    20:00 +30°C° 0 mm 4 mps 753 mmHg 12%
    21:00 +29°C° 0 mm 4 mps 753 mmHg 13%
    22:00 +29°C° 0 mm 4 mps 753 mmHg 14%
    23:00 +28°C° 0 mm 4 mps 753 mmHg 15%

    22 October, Sunday

    Time Temperature Precipitation Wind Pressure Humidity
    00:00 +27°C° 0 mm 5 mps 752 mmHg 15%
    01:00 +27°C° 0 mm 4 mps 752 mmHg 16%
    02:00 +27°C° 0 mm 4 mps 752 mmHg 16%
    03:00 +26°C° 0 mm 4 mps 752 mmHg 16%
    04:00 +26°C° 0 mm 4 mps 753 mmHg 17%
    05:00 +25°C° 0 mm 4 mps 753 mmHg 17%
    06:00 +25°C° 0 mm 4 mps 753 mmHg 17%
    07:00 +27°C° 0 mm 4 mps 753 mmHg 15%
    08:00 +29°C° 0 mm 5 mps 754 mmHg 13%
    09:00 +33°C° 0 mm 5 mps 754 mmHg 11%
    10:00 +34°C° 0 mm 6 mps 754 mmHg 11%
    11:00 +35°C° 0 mm 6 mps 753 mmHg 10%
    12:00 +38°C° 0 mm 7 mps 753 mmHg 9%
    13:00 +38°C° 0 mm 7 mps 752 mmHg 9%
    14:00 +38°C° 0 mm 6 mps 752 mmHg 9%
    15:00 +38°C° 0 mm 6 mps 752 mmHg 8%
    16:00 +35°C° 0 mm 5 mps 752 mmHg 10%
    17:00 +33°C° 0 mm 5 mps 752 mmHg 11%
    18:00 +32°C° 0 mm 4 mps 752 mmHg 12%
    19:00 +30°C° 0 mm 3 mps 752 mmHg 13%
    20:00 +29°C° 0 mm 3 mps 752 mmHg 13%
    21:00 +28°C° 0 mm 3 mps 753 mmHg 14%
    22:00 +28°C° 0 mm 3 mps 752 mmHg 15%
    23:00 +27°C° 0 mm 3 mps 752 mmHg 15%
    Show more